Météo par heure à Jurzyn

Ce jour, 20 Juin, Dimanche

Heure Température Précipitation Vent Pression Humidité
00:00 +20°C° 0.1 mm 2 m/s 746 mmHg 91%
01:00 +21°C° 0.1 mm 1 m/s 746 mmHg 91%
02:00 +20°C° 0 mm 1 m/s 746 mmHg 91%
03:00 +20°C° 0 mm 1 m/s 745 mmHg 91%
04:00 +20°C° 0 mm 1 m/s 745 mmHg 91%
05:00 +22°C° 0 mm 1 m/s 745 mmHg 84%
06:00 +23°C° 0 mm 2 m/s 745 mmHg 77%
07:00 +25°C° 0 mm 2 m/s 745 mmHg 70%
08:00 +27°C° 0 mm 2 m/s 745 mmHg 62%
09:00 +29°C° 0 mm 2 m/s 745 mmHg 53%
10:00 +33°C° 0 mm 3 m/s 745 mmHg 45%
11:00 +34°C° 0 mm 3 m/s 745 mmHg 42%
12:00 +35°C° 0 mm 3 m/s 745 mmHg 38%
13:00 +36°C° 0 mm 3 m/s 744 mmHg 35%
14:00 +35°C° 0 mm 3 m/s 744 mmHg 35%
15:00 +35°C° 0 mm 3 m/s 744 mmHg 35%
16:00 +35°C° 0 mm 4 m/s 744 mmHg 35%
17:00 +33°C° 0 mm 3 m/s 744 mmHg 42%
18:00 +31°C° 0 mm 3 m/s 743 mmHg 49%
19:00 +29°C° 0 mm 2 m/s 743 mmHg 56%
20:00 +27°C° 0 mm 2 m/s 743 mmHg 60%
21:00 +26°C° 0 mm 2 m/s 743 mmHg 64%
22:00 +24°C° 0 mm 1 m/s 743 mmHg 68%
23:00 +24°C° 0 mm 1 m/s 743 mmHg 70%

Demain, 21 Juin, Lundi

Heure Température Précipitation Vent Pression Humidité
00:00 +23°C° 0 mm 1 m/s 742 mmHg 72%
01:00 +23°C° 0 mm 2 m/s 742 mmHg 75%
02:00 +23°C° 0 mm 1 m/s 742 mmHg 77%
03:00 +22°C° 0 mm 1 m/s 742 mmHg 79%
04:00 +22°C° 0 mm 1 m/s 741 mmHg 81%
05:00 +24°C° 0 mm 2 m/s 741 mmHg 74%
06:00 +25°C° 0 mm 2 m/s 741 mmHg 68%
07:00 +27°C° 0 mm 3 m/s 741 mmHg 61%
08:00 +29°C° 0 mm 3 m/s 741 mmHg 56%
09:00 +30°C° 0 mm 3 m/s 741 mmHg 50%
10:00 +33°C° 0 mm 3 m/s 741 mmHg 44%
11:00 +33°C° 0 mm 3 m/s 741 mmHg 44%
12:00 +33°C° 0 mm 4 m/s 741 mmHg 44%
13:00 +33°C° 0 mm 4 m/s 741 mmHg 44%
14:00 +30°C° 2.7 mm 4 m/s 742 mmHg 54%
15:00 +28°C° 2.7 mm 3 m/s 742 mmHg 63%
16:00 +25°C° 2.7 mm 3 m/s 742 mmHg 73%
17:00 +24°C° 1.8 mm 2 m/s 742 mmHg 77%
18:00 +23°C° 1.8 mm 1 m/s 743 mmHg 81%
19:00 +22°C° 1.8 mm 1 m/s 743 mmHg 85%
20:00 +21°C° 0 mm 1 m/s 743 mmHg 85%
21:00 +21°C° 0 mm 1 m/s 743 mmHg 86%
22:00 +20°C° 0 mm 1 m/s 744 mmHg 86%
23:00 +20°C° 0 mm 1 m/s 744 mmHg 88%

Après-demain, 22 Juin, Mardi

Heure Température Précipitation Vent Pression Humidité
00:00 +20°C° 0 mm 1 m/s 744 mmHg 89%
01:00 +19°C° 0 mm 1 m/s 744 mmHg 91%
02:00 +19°C° 0 mm 1 m/s 744 mmHg 92%
03:00 +19°C° 0 mm 1 m/s 744 mmHg 93%
04:00 +18°C° 0 mm 1 m/s 744 mmHg 95%
05:00 +19°C° 0 mm 2 m/s 745 mmHg 89%
06:00 +20°C° 0 mm 2 m/s 745 mmHg 83%
07:00 +21°C° 0 mm 2 m/s 745 mmHg 77%
08:00 +24°C° 0 mm 2 m/s 746 mmHg 70%
09:00 +26°C° 0 mm 2 m/s 746 mmHg 63%
10:00 +27°C° 0 mm 2 m/s 746 mmHg 56%
11:00 +28°C° 0 mm 3 m/s 746 mmHg 52%
12:00 +29°C° 0 mm 3 m/s 746 mmHg 48%
13:00 +29°C° 0 mm 3 m/s 746 mmHg 44%
14:00 +30°C° 0 mm 3 m/s 746 mmHg 42%
15:00 +30°C° 0 mm 3 m/s 746 mmHg 41%
16:00 +30°C° 0 mm 3 m/s 746 mmHg 40%
17:00 +28°C° 0 mm 3 m/s 746 mmHg 45%
18:00 +27°C° 0 mm 3 m/s 746 mmHg 49%
19:00 +26°C° 0 mm 3 m/s 746 mmHg 54%
20:00 +24°C° 0 mm 3 m/s 746 mmHg 59%
21:00 +22°C° 0 mm 3 m/s 746 mmHg 63%
22:00 +21°C° 0 mm 3 m/s 747 mmHg 68%
23:00 +20°C° 0.2 mm 3 m/s 747 mmHg 74%

23 Juin, Mercredi

Heure Température Précipitation Vent Pression Humidité
00:00 +19°C° 0.2 mm 3 m/s 747 mmHg 80%
01:00 +18°C° 0.2 mm 3 m/s 747 mmHg 86%
02:00 +17°C° 0.6 mm 3 m/s 747 mmHg 88%
03:00 +17°C° 0.6 mm 3 m/s 747 mmHg 91%
04:00 +16°C° 0.6 mm 3 m/s 747 mmHg 93%
05:00 +17°C° 1.4 mm 3 m/s 747 mmHg 93%
06:00 +17°C° 1.4 mm 3 m/s 747 mmHg 94%
07:00 +17°C° 1.4 mm 4 m/s 747 mmHg 94%
08:00 +14°C° 3.4 mm 4 m/s 748 mmHg 94%
09:00 +13°C° 3.4 mm 5 m/s 749 mmHg 95%
10:00 +12°C° 3.4 mm 5 m/s 749 mmHg 95%
11:00 +13°C° 0.1 mm 5 m/s 750 mmHg 93%
12:00 +13°C° 0.1 mm 5 m/s 750 mmHg 90%
13:00 +14°C° 0.1 mm 4 m/s 751 mmHg 88%
14:00 +15°C° 0 mm 4 m/s 751 mmHg 82%
15:00 +18°C° 0 mm 4 m/s 751 mmHg 75%
16:00 +19°C° 0 mm 4 m/s 751 mmHg 69%
17:00 +19°C° 0 mm 3 m/s 751 mmHg 70%
18:00 +18°C° 0 mm 3 m/s 751 mmHg 72%
19:00 +18°C° 0 mm 2 m/s 751 mmHg 74%
20:00 +17°C° 0 mm 2 m/s 751 mmHg 78%
21:00 +16°C° 0 mm 1 m/s 751 mmHg 82%
22:00 +15°C° 0 mm 1 m/s 751 mmHg 86%
23:00 +14°C° 0 mm 1 m/s 751 mmHg 88%

24 Juin, Jeudi

Heure Température Précipitation Vent Pression Humidité
00:00 +14°C° 0 mm 1 m/s 751 mmHg 91%
01:00 +13°C° 0 mm 1 m/s 751 mmHg 94%
02:00 +13°C° 0 mm 1 m/s 751 mmHg 94%
03:00 +13°C° 0 mm 1 m/s 751 mmHg 95%
04:00 +13°C° 0 mm 1 m/s 750 mmHg 95%
05:00 +14°C° 0 mm 2 m/s 750 mmHg 89%
06:00 +16°C° 0 mm 2 m/s 750 mmHg 83%
07:00 +17°C° 0 mm 2 m/s 750 mmHg 78%
08:00 +16°C° 1.6 mm 2 m/s 750 mmHg 83%
09:00 +16°C° 1.6 mm 2 m/s 750 mmHg 89%
10:00 +15°C° 1.6 mm 2 m/s 750 mmHg 95%
11:00 +16°C° 0.6 mm 2 m/s 750 mmHg 95%
12:00 +16°C° 0.6 mm 2 m/s 750 mmHg 95%
13:00 +16°C° 0.6 mm 2 m/s 750 mmHg 95%
14:00 +16°C° 0.4 mm 2 m/s 750 mmHg 95%
15:00 +16°C° 0.4 mm 2 m/s 750 mmHg 96%
16:00 +16°C° 0.4 mm 2 m/s 751 mmHg 96%
17:00 +16°C° 0.2 mm 2 m/s 751 mmHg 97%
18:00 +15°C° 0.2 mm 2 m/s 750 mmHg 97%
19:00 +15°C° 0.2 mm 2 m/s 750 mmHg 97%
20:00 +15°C° 0.2 mm 2 m/s 750 mmHg 97%
21:00 +15°C° 0.2 mm 2 m/s 751 mmHg 98%
22:00 +15°C° 0.2 mm 2 m/s 751 mmHg 98%
23:00 +15°C° 0.2 mm 2 m/s 751 mmHg 98%

25 Juin, Vendredi

Heure Température Précipitation Vent Pression Humidité
00:00 +15°C° 0.2 mm 2 m/s 751 mmHg 97%
01:00 +14°C° 0.2 mm 2 m/s 751 mmHg 97%
02:00 +14°C° 0 mm 2 m/s 751 mmHg 97%
03:00 +14°C° 0 mm 2 m/s 750 mmHg 98%
04:00 +13°C° 0 mm 2 m/s 750 mmHg 98%
05:00 +14°C° 0 mm 2 m/s 750 mmHg 95%
06:00 +15°C° 0 mm 2 m/s 750 mmHg 92%
07:00 +17°C° 0 mm 2 m/s 750 mmHg 88%
08:00 +18°C° 0.1 mm 2 m/s 750 mmHg 81%
09:00 +19°C° 0.1 mm 2 m/s 750 mmHg 75%
10:00 +21°C° 0.1 mm 2 m/s 750 mmHg 68%
11:00 +21°C° 0.2 mm 2 m/s 750 mmHg 66%
12:00 +21°C° 0.2 mm 3 m/s 750 mmHg 65%
13:00 +21°C° 0.2 mm 3 m/s 750 mmHg 64%
14:00 +21°C° 0.2 mm 3 m/s 750 mmHg 68%
15:00 +20°C° 0.2 mm 3 m/s 750 mmHg 72%
16:00 +19°C° 0.2 mm 2 m/s 749 mmHg 76%
17:00 +19°C° 0.1 mm 2 m/s 749 mmHg 79%
18:00 +18°C° 0.1 mm 2 m/s 749 mmHg 82%
19:00 +19°C° 0.1 mm 1 m/s 749 mmHg 85%
20:00 +18°C° 0 mm 1 m/s 749 mmHg 87%
21:00 +16°C° 0 mm 1 m/s 749 mmHg 89%
22:00 +15°C° 0 mm 1 m/s 749 mmHg 91%
23:00 +15°C° 0 mm 1 m/s 749 mmHg 91%
Voir plus

Nous avons besoin de votre consentement

Meteoprog et ses fournisseurs de services peuvent stocker et accéder à des données personnelles telles que des cookies, des identifiants d'appareils ou d'autres technologies similaires sur votre appareil et traiter ces données pour personnaliser le contenu et les publicités, ainsi que pour fournir des fonctionnalités de médias sociaux et analyser le trafic.

  • Stocker et/ou accéder à des informations sur votre appareil

    Des cookies, des identifiants d'appareils ou d'autres informations peuvent être stockés ou accessibles sur votre appareil aux fins indiquées ci-dessus.

  • Annonces et contenus personnalisés, mesure des annonces et des contenus, connaissance de l'audience et développement de produits

    Les annonces et le contenu peuvent être personnalisés en fonction d'un profil. D'autres données peuvent être ajoutées pour mieux personnaliser les annonces et le contenu. Les performances des publicités et du contenu peuvent être mesurées. Il est possible d'obtenir des informations sur le public qui a vu les publicités et le contenu. Ces données peuvent être utilisées pour développer ou améliorer l'expérience de l'utilisateur, les systèmes et les logiciels.

En cliquant sur "J'accepte", vous autorisez l'utilisation de cookies, des identifiants d'appareils, des balises web ou d'autres technologies similaires. Vos paramètres peuvent être modifiés dans le navigateur de votre appareil.

Dans certains cas, des intérêts légitimes peuvent être invoqués plutôt qu'un consentement. Vous pouvez en savoir plus à ce sujet dans notre Politique de confidentialité et de cookies.